User: anonymous   Login
Location: ??????
(41.3747°N, 22.5491°E)
Time: 03:06:52
(UTC+00:00)
Language:

Cosmos 1656 Rocket - Orbit

View from above orbital plane
View from above orbital plane
View from above satellite
View from above satellite

Ground track
Ground track

The orbit data is extracted from the following two-line orbital elements,

1 15772U 85042D   21058.27336628  .00000061  00000-0  49218-4 0  9999
2 15772  71.1107   4.7642 0033139 103.3987  45.9549 14.21285866853414
Epoch (UTC): 27 February 2021 06:33:38
Eccentricity: 0.0033139
inclination: 71.1107°
perigee height: 797 km
apogee height: 845 km
right ascension of ascending node: 4.7642°
argument of perigee: 103.3987°
revolutions per day: 14.21285866
mean anomaly at epoch: 45.9549°
orbit number at epoch: 85341

The dashed part of the orbit path shows where the satellite is in the earth's shadow,  

DLR